Weerstation Grootegast  Weerstation Grootegast


15 daagse weersverwachting Leicester (GB)

  • Overzicht
  • Per uur
  • 15 dagen
  • Extra
  • Vergelijk
  • Kaarten
  • Dagkaart
  • Meer »
  • Info
  • Statistieken
  • Directe link
    Temp 6h Neerslag Wind  
 04:42     21:31    Daglengte: 16:49 Vandaag
01:00
13°
 
7
07:00
13°
 
7
13:00
18°
 
7
19:00
18°
 
5
 04:42     21:31    Daglengte: 16:49 Morgen
01:00
14°
 
3
07:00
13°
 
3
13:00
18°
 
3
19:00
18°
2.0 mm
1
 04:42     21:31    Daglengte: 16:49 Woensdag 19 Jun
01:00
14°
1.5 mm
2
07:00
14°
7.9 mm
2
13:00
16°
49.0 mm
3
19:00
16°
12.0 mm
4
Locatie info
Region: England
Latitude: 52.6380°N
Longitude: -1.1404°E
65 masl
Postcode: LE1 4
Temp/Neerslag /Baro Onweer/Dauwpunt
    Temp Baro 1h Neerslag Dauwpunt Wind UV Bewolking  
 04:42     21:31    Daglengte: 16:49 Vandaag
01:00
13°
1015.1 hPa
48%
11.0°
7
Windvlaag: 5.4 m/s
12%
02:00
13°
1015.1 hPa
14%
10.5°
7
Windvlaag: 5.4 m/s
29%
03:00
12°
1015.0 hPa
20%
10.6°
6
Windvlaag: 5.4 m/s
23%
04:00
12°
1014.9 hPa
30%
10.6°
6
Windvlaag: 5.1 m/s
17%
05:00
12°
1015.0 hPa
15%
10.5°
6
Windvlaag: 5.4 m/s
24%
06:00
12°
1015.4 hPa
17%
10.5°
6
Windvlaag: 5.5 m/s
53%
07:00
13°
1015.5 hPa
22%
10.7°
7
Windvlaag: 5.5 m/s
53%
08:00
14°
1015.6 hPa
67%
10.8°
7
Windvlaag: 5.6 m/s
70%
09:00
15°
1015.6 hPa
65%
11.0°
7
Windvlaag: 5.5 m/s
71%
10:00
16°
1015.6 hPa
34%
11.3°
7
Windvlaag: 5.4 m/s
86%
11:00
16°
1015.6 hPa
59%
11.4°
7
Windvlaag: 4.9 m/s
57%
12:00
17°
1015.6 hPa
15%
11.9°
7
Windvlaag: 4.8 m/s
66%
13:00
18°
1015.3 hPa
14%
12.3°
7
Windvlaag: 4.6 m/s
68%
14:00
18°
1015.2 hPa
21%
12.5°
6
Windvlaag: 4.6 m/s
54%
15:00
19°
1015.0 hPa
27%
12.2°
6
Windvlaag: 4.5 m/s
44%
16:00
19°
1014.7 hPa
29%
12.1°
6
Windvlaag: 4.3 m/s
48%
17:00
19°
1014.6 hPa
17%
12.2°
5
Windvlaag: 3.8 m/s
41%
18:00
18°
1014.5 hPa
17%
12.2°
5
Windvlaag: 3.7 m/s
43%
19:00
18°
1014.5 hPa
16%
12.3°
5
Windvlaag: 3.3 m/s
12%
20:00
17°
1014.4 hPa
15%
12.7°
4
Windvlaag: 3.1 m/s
32%
21:00
16°
1014.6 hPa
14%
12.6°
4
Windvlaag: 2.9 m/s
29%
22:00
15°
1015.0 hPa
14%
12.5°
4
Windvlaag: 3.2 m/s
27%
23:00
15°
1015.2 hPa
17%
12.3°
4
Windvlaag: 3.3 m/s
55%
 04:42     21:31    Daglengte: 16:49 Morgen
00:00
14°
1015.2 hPa
22%
12.4°
4
Windvlaag: 3.3 m/s
37%
01:00
14°
1015.3 hPa
27%
12.5°
3
Windvlaag: 2.8 m/s
41%
02:00
13°
1015.2 hPa
23%
12.4°
3
Windvlaag: 2.2 m/s
80%
03:00
13°
1015.0 hPa
14%
12.2°
3
Windvlaag: 2.1 m/s
81%
04:00
13°
1014.8 hPa
16%
11.7°
2
Windvlaag: 1.9 m/s
86%
05:00
12°
1014.7 hPa
16%
11.3°
2
Windvlaag: 1.7 m/s
82%
06:00
12°
1014.7 hPa
14%
11.1°
3
Windvlaag: 1.4 m/s
64%
07:00
13°
1014.8 hPa
14%
11.5°
3
Windvlaag: 1.2 m/s
79%
08:00
14°
1014.7 hPa
14%
11.7°
3
Windvlaag: 1.2 m/s
86%
09:00
15°
1014.8 hPa
14%
11.7°
3
Windvlaag: 1.6 m/s
74%
10:00
16°
1014.7 hPa
14%
11.9°
3
Windvlaag: 2 m/s
85%
11:00
17°
1014.5 hPa
14%
11.8°
3
Windvlaag: 2.1 m/s
74%
12:00
18°
1014.1 hPa
14%
11.3°
3
Windvlaag: 2.3 m/s
63%
13:00
18°
1013.7 hPa
14%
11.5°
3
Windvlaag: 2 m/s
62%
14:00
18°
1013.3 hPa
14%
12.2°
3
Windvlaag: 1.9 m/s
65%
15:00
19°
1013.0 hPa
14%
13.4°
3
Windvlaag: 1.9 m/s
76%
16:00
19°
1012.6 hPa
14%
13.8°
2
Windvlaag: 1.5 m/s
72%
17:00
19°
1012.2 hPa
14%
13.6°
2
Windvlaag: 1 m/s
80%
18:00
19°
1011.8 hPa
22%
13.6°
2
Windvlaag: 1 m/s
76%
19:00
18°
1011.6 hPa 2.0 mm
78%
14.1°
1
Windvlaag: 0.9 m/s
82%
20:00
17°
1011.6 hPa 1.5 mm
82%
13.9°
1
Windvlaag: 0.9 m/s
75%
21:00
16°
1011.4 hPa
82%
13.4°
1
Windvlaag: -0.2 m/s
82%
22:00
15°
1011.2 hPa
100%
13.2°
1
Windvlaag: -0.1 m/s
82%
23:00
14°
1011.0 hPa
44%
12.9°
1
Windvlaag: 0.1 m/s
88%
 04:42     21:31    Daglengte: 16:49 Woensdag 19 Jun
00:00
13°
1010.4 hPa
39%
12.7°
2
Windvlaag: 0.2 m/s
92%
01:00
14°
1009.8 hPa
99%
13.1°
2
Windvlaag: 0 m/s
91%
02:00
14°
1009.3 hPa
100%
13.4°
2
Windvlaag: -0 m/s
93%
03:00
14°
1008.6 hPa
100%
13.5°
2
Windvlaag: 0 m/s
94%
04:00
13°
1007.8 hPa
100%
13.4°
2
Windvlaag: -0.5 m/s
94%
05:00
13°
1007.6 hPa 2.5 mm
100%
13.3°
2
Windvlaag: -1.2 m/s
99%
06:00
13°
1007.4 hPa 2.4 mm
100%
13.3°
2
Windvlaag: -1.6 m/s
100%
07:00
14°
1007.2 hPa 3.0 mm
100%
12.9°
2
Windvlaag: -2.1 m/s
100%
08:00
14°
1006.0 hPa 4.0 mm
100%
12.8°
2
Windvlaag: 1 m/s
100%
09:00
14°
1005.6 hPa 5.8 mm
100%
12.8°
2
Windvlaag: 0.7 m/s
100%
10:00
15°
1005.3 hPa 9.4 mm
100%
12.6°
3
Windvlaag: 0.8 m/s
99%
11:00
15°
1005.3 hPa 8.9 mm
99%
12.4°
3
Windvlaag: 1.1 m/s
100%
12:00
16°
1005.5 hPa 9.5 mm
94%
12.3°
3
Windvlaag: 1.2 m/s
100%
13:00
16°
1005.6 hPa 11.3 mm
90%
12.2°
3
Windvlaag: 1.6 m/s
100%
14:00
16°
1006.0 hPa 12.0 mm
92%
11.8°
3
Windvlaag: 1.7 m/s
98%
15:00
16°
1006.2 hPa
88%
11.8°
4
Windvlaag: 1.3 m/s
65%
16:00
17°
1006.5 hPa
82%
11.9°
4
Windvlaag: 1.3 m/s
89%
17:00
17°
1006.7 hPa
34%
11.8°
4
Windvlaag: 1.3 m/s
74%
18:00
17°
1006.8 hPa
27%
11.6°
4
Windvlaag: 1.2 m/s
71%
19:00
16°
1007.1 hPa
22%
12.0°
4
Windvlaag: 1 m/s
49%
20:00
16°
1007.5 hPa
21%
11.7°
3
Windvlaag: 7 m/s
62%
21:00
15°
1007.9 hPa
21%
11.0°
3
Windvlaag: 7 m/s
39%
22:00
14°
1008.4 hPa
21%
10.4°
3
Windvlaag: 6.1 m/s
42%
23:00
13°
1008.8 hPa
32%
10.1°
3
Windvlaag: 7.4 m/s
44%
 04:42     21:32    Daglengte: 16:50 Donderdag 20 Jun
00:00
13°
1009.1 hPa
88%
9.5°
3
Windvlaag: 7.9 m/s
24%
Temp/Neerslag /Baro Onweer/Dauwpunt
    Temp Baro Neerslag Dauwpunt Wind Bewolking  
 04:42     21:31    Daglengte: 16:49 Vandaag
01:00
13°
1015.1 hPa   11.0°
7
12%
04:00
12°
1014.9 hPa   10.6°
6
17%
07:00
13°
1015.5 hPa   10.7°
7
53%
10:00
16°
1015.6 hPa   11.3°
7
86%
13:00
18°
1015.3 hPa   12.3°
7
68%
16:00
19°
1014.7 hPa   12.1°
6
48%
19:00
18°
1014.5 hPa   12.3°
5
12%
22:00
15°
1015.0 hPa   12.5°
4
27%
 04:42     21:31    Daglengte: 16:49 Morgen
01:00
14°
1015.3 hPa   12.5°
3
41%
04:00
13°
1014.8 hPa   11.7°
2
86%
07:00
13°
1014.8 hPa   11.5°
3
79%
10:00
16°
1014.7 hPa   11.9°
3
85%
13:00
18°
1013.7 hPa   11.5°
3
62%
16:00
19°
1012.6 hPa   13.8°
2
72%
19:00
18°
1011.6 hPa 2.0 mm 14.1°
1
82%
22:00
15°
1011.2 hPa 1.5 mm 13.2°
1
82%
 04:42     21:31    Daglengte: 16:49 Woensdag 19 Jun
01:00
14°
1009.8 hPa   13.1°
2
91%
04:00
13°
1007.8 hPa   13.4°
2
94%
07:00
14°
1007.2 hPa 7.9 mm 12.9°
2
100%
10:00
15°
1005.3 hPa 19.2 mm 12.6°
3
99%
13:00
16°
1005.6 hPa 29.8 mm 12.2°
3
100%
16:00
17°
1006.5 hPa 12.0 mm 11.9°
4
89%
19:00
16°
1007.1 hPa   12.0°
4
49%
22:00
14°
1008.4 hPa   10.4°
3
42%
 04:42     21:32    Daglengte: 16:50 Donderdag 20 Jun
01:00
12°
1009.4 hPa   8.8°
3
20%
04:00
11°
1010.6 hPa 28.4 mm 8.9°
4
20%
07:00
11°
1011.0 hPa 28.4 mm 9.0°
4
11%
10:00
13°
1011.5 hPa 28.4 mm 9.2°
5
35%
13:00
16°
1011.9 hPa 29.0 mm 8.8°
5
59%
16:00
15°
1012.3 hPa 30.3 mm 8.8°
5
56%
19:00
15°
1012.7 hPa 30.6 mm 8.8°
4
54%
22:00
12°
1014.0 hPa 30.8 mm 7.7°
3
28%
 04:42     21:32    Daglengte: 16:50 Vrijdag 21 Jun
01:00
Voelt als: 7.2°
1015.4 hPa 30.8 mm 6.3°
2
1%
04:00
Voelt als: 7.6°
1016.1 hPa 30.8 mm 7.0°
3
1%
07:00
10°
Voelt als: 8.4°
1016.9 hPa 30.8 mm 7.8°
3
0%
10:00
13°
1017.5 hPa 30.8 mm 7.9°
4
39%
13:00
16°
1018.0 hPa 31.2 mm 7.1°
4
77%
16:00
16°
1018.3 hPa 31.7 mm 7.3°
4
63%
19:00
16°
1018.6 hPa 32.3 mm 7.6°
3
48%
22:00
12°
1019.8 hPa 32.4 mm 7.4°
3
30%
 04:43     21:32    Daglengte: 16:49 Zaterdag 22 Jun
01:00
Voelt als: 7.4°
1020.9 hPa 32.4 mm 6.8°
2
12%
04:00
10°
Voelt als: 8.7°
1021.1 hPa 32.4 mm 7.1°
2
25%
07:00
11°
1021.3 hPa 32.4 mm 7.5°
2
37%
10:00
14°
1021.1 hPa 32.4 mm 7.9°
2
63%
13:00
17°
1021.0 hPa 32.7 mm 7.5°
3
89%
16:00
17°
1020.3 hPa 33.4 mm 8.9°
3
73%
19:00
17°
1019.6 hPa 33.4 mm 9.9°
4
58%
22:00
14°
1019.9 hPa 33.5 mm 10.3°
4
75%
 04:43     21:32    Daglengte: 16:49 Zondag 23 Jun
01:00
13°
1020.1 hPa 33.5 mm 10.4°
3
91%
04:00
12°
1019.7 hPa 33.5 mm 10.3°
3
91%
07:00
12°
1019.3 hPa 33.5 mm 10.5°
4
92%
10:00
15°
1018.5 hPa 33.5 mm 11.5°
5
92%
13:00
17°
1017.8 hPa 34.1 mm 12.3°
5
92%
16:00
17°
1017.2 hPa 34.8 mm 12.4°
4
91%
19:00
16°
1016.6 hPa 34.8 mm 12.4°
3
90%
22:00
14°
1016.9 hPa   12.4°
3
76%
 04:43     21:32    Daglengte: 16:49 Maandag 24 Jun
01:00
13°
1017.1 hPa 69.7 mm 12.4°
3
62%
07:00
13°
1016.7 hPa 69.7 mm 12.4°
5
92%
13:00
16°
1017.2 hPa 73.9 mm 13.3°
5
92%
19:00
15°
1017.8 hPa 83.9 mm 12.8°
6
91%
 04:44     21:32    Daglengte: 16:48 Dinsdag 25 Jun
01:00
11°
1019.5 hPa 91.7 mm 9.7°
6
90%
07:00
11°
1020.6 hPa 105.4 mm 8.8°
6
87%
13:00
14°
1022.7 hPa 122.9 mm 8.5°
7
90%
19:00
13°
1023.6 hPa 126.4 mm 7.4°
6
88%
 04:44     21:32    Daglengte: 16:48 Woensdag 26 Jun
01:00
10°
1025.3 hPa 126.8 mm 7.4°
5
56%
07:00
10°
1025.3 hPa 126.8 mm 7.9°
5
47%
13:00
15°
1025.5 hPa 126.9 mm 7.9°
6
92%
19:00
18°
1021.2 hPa 1.0 mm 12.8°
1
48%
 04:45     21:32    Daglengte: 16:47 Donderdag 27 Jun
01:00
11°
1020.8 hPa 0.6 mm 9.8°
1
45%
07:00
12°
1018.8 hPa 0.8 mm 10.5°
1
51%
13:00
18°
1017.5 hPa 0.9 mm 13.1°
2
55%
19:00
18°
1016.0 hPa 0.7 mm 13.1°
2
48%
 04:45     21:32    Daglengte: 16:47 Vrijdag 28 Jun
01:00
12°
1016.1 hPa 0.3 mm 10.3°
1
41%
07:00
12°
1015.0 hPa 0.8 mm 10.9°
2
46%
13:00
18°
1014.9 hPa 0.5 mm 12.5°
3
56%
19:00
18°
1014.5 hPa 0.8 mm 12.9°
3
61%
 04:46     21:32    Daglengte: 16:46 Zaterdag 29 Jun
01:00
11°
1015.6 hPa 0.3 mm 9.9°
2
40%
07:00
12°
1015.5 hPa 0.1 mm 9.7°
2
25%
13:00
18°
1015.0 hPa 0.7 mm 11.7°
3
42%
19:00
18°
1014.2 hPa 0.8 mm 12.7°
3
52%
 04:46     21:31    Daglengte: 16:45 Zondag 30 Jun
01:00
12°
1015.0 hPa 0.2 mm 9.6°
2
33%
07:00
12°
1014.8 hPa 0.1 mm 10.2°
2
34%
13:00
18°
1014.6 hPa 0.4 mm 12.0°
3
50%
19:00
17°
1014.2 hPa 0.7 mm 12.4°
3
56%
 04:47     21:31    Daglengte: 16:44 Maandag 01 Jul
01:00
11°
1015.2 hPa 0.3 mm 9.8°
2
30%
07:00
12°
1015.0 hPa   10.4°
2
30%
13:00
18°
1014.8 hPa 0.5 mm 11.9°
3
47%
19:00
18°
1014.3 hPa 1.0 mm 12.3°
3
55%
  CAPE Lifted Index Hail Supercell Tornado SRH 3km CL BTM PRES CL TOP PRES Swiss DWD icon SMHI TS
 04:42     21:31    Daglengte: 16:49 Vandaag
01:00 0 J/kg 4.4 K 0 % 0 % 0 % 0 m²/s² 0 0 5.66 3
02:00 0 J/kg 5.1 K 0 % 0 % 0 % 0 m²/s² 0 0 6.36 3
03:00 0 J/kg 5.6 K 0 % 0 % 0 % 0 m²/s² 0 0 6.92 3
04:00 0 J/kg 6.2 K 0 % 0 % 0 % 0 m²/s² 0 0 7.85 2
05:00 0 J/kg 6.8 K 0 % 0 % 0 % 0 m²/s² 0 0 8.96 1
06:00 0 J/kg 6.8 K 0 % 0 % 0 % 0 m²/s² 0 0 9.17 3
07:00 1 J/kg 6.2 K 0 % 0 % 0 % 0 m²/s² 0 0 8.63 3
08:00 5 J/kg 5.3 K 0 % 0 % 0 % 0 m²/s² 0 0 7.97 3
09:00 11 J/kg 4.8 K 0 % 0 % 0 % 0 m²/s² 0 0 8.04 3
10:00 18 J/kg 4.3 K 0 % 0 % 0 % 0 m²/s² 0 0 7.99 3
11:00 19 J/kg 3.9 K 0 % 0 % 0 % 0 m²/s² 0 0 7.59 3
12:00 16 J/kg 3.9 K 0 % 0 % 0 % 0 m²/s² 0 0 7.89 3
13:00 16 J/kg 3.1 K 0 % 0 % 0 % 0 m²/s² 0 0 7.39 3
14:00 37 J/kg 2.1 K 0 % 0 % 0 % 0 m²/s² 0 0 6.3 3
15:00 52 J/kg 1.5 K 0 % 0 % 0 % 0 m²/s² 0 0 6.03 2
16:00 67 J/kg 1.0 K 0 % 0 % 0 % 0 m²/s² 0 0 5.89 3
17:00 132 J/kg 0.1 K 0 % 0 % 0 % 0 m²/s² 0 0 4.99 3
18:00 152 J/kg 0.1 K 0 % 0 % 0 % 0 m²/s² 0 0 4.75 3
19:00 200 J/kg -0.1 K 0 % 0 % 0 % 0 m²/s² 0 0 4.1 2
20:00 190 J/kg -0.3 K 0 % 0 % 0 % 0 m²/s² 0 0 3.51 2
21:00 115 J/kg 0.2 K 0 % 0 % 0 % 0 m²/s² 0 0 3.62 3
22:00 52 J/kg 0.9 K 0 % 0 % 0 % 0 m²/s² 0 0 3.81 3
23:00 23 J/kg 1.5 K 0 % 0 % 0 % 0 m²/s² 0 0 4.08 3
 04:42     21:31    Daglengte: 16:49 Morgen
00:00 0 J/kg 2.3 K 0 % 0 % 0 % 0 m²/s² 0 0 4.73 3
01:00 0 J/kg 2.9 K 0 % 0 % 0 % 0 m²/s² 0 0 5.12 3
02:00 0 J/kg 3.0 K 0 % 0 % 0 % 0 m²/s² 0 0 5.58 3
03:00 0 J/kg 3.1 K 0 % 0 % 0 % 0 m²/s² 0 0 5.92 3
04:00 0 J/kg 3.2 K 0 % 0 % 0 % 0 m²/s² 0 0 6.2 3
05:00 0 J/kg 3.7 K 0 % 0 % 0 % 0 m²/s² 0 0 6.46 3
06:00 0 J/kg 4.0 K 0 % 0 % 0 % 0 m²/s² 0 0 6.46 3
07:00 0 J/kg 4.2 K 0 % 0 % 0 % 0 m²/s² 0 0 6.24 3
08:00 0 J/kg 4.3 K 0 % 0 % 0 % 0 m²/s² 0 0 6.55 3
09:00 2 J/kg 3.8 K 0 % 0 % 0 % 0 m²/s² 0 0 6.05 3
10:00 3 J/kg 3.5 K 0 % 0 % 0 % 0 m²/s² 0 0 4.73 3
11:00 6 J/kg 2.7 K 0 % 0 % 0 % 0 m²/s² 0 0 3.54 3
12:00 6 J/kg 2.2 K 0 % 0 % 0 % 0 m²/s² 0 0 2.89 3
13:00 1 J/kg 2.3 K 0 % 0 % 0 % 0 m²/s² 0 0 2.33 3
14:00 20 J/kg 2.5 K 0 % 0 % 0 % 0 m²/s² 0 0 2.53 3
15:00 14 J/kg 2.9 K 0 % 0 % 0 % 0 m²/s² 0 0 2.93 3
16:00 1 J/kg 3.5 K 0 % 0 % 0 % 0 m²/s² 0 0 3.59 3
17:00 3 J/kg 3.5 K 0 % 0 % 0 % 0 m²/s² 0 0 3.59 3
18:00 4 J/kg 2.5 K 0 % 0 % 0 % 0 m²/s² 0 0 2.71 3
19:00 0 J/kg 2.3 K 0 % 0 % 0 % 0 m²/s² 0 0 3.23 3
20:00 0 J/kg 1.8 K 0 % 0 % 0 % 0 m²/s² 0 0 2.79 61
21:00 0 J/kg 1.5 K 0 % 0 % 0 % 0 m²/s² 0 0 3.06 61
22:00 0 J/kg 1.8 K 0 % 0 % 0 % 0 m²/s² 0 0 3.75 61
23:00 0 J/kg 1.6 K 0 % 0 % 0 % 0 m²/s² 0 0 2.89 3
 04:42     21:31    Daglengte: 16:49 Woensdag 19 Jun
00:00 0 J/kg 1.4 K 0 % 0 % 0 % 0 m²/s² 0 0 2.63 3
01:00 0 J/kg 0.5 K 0 % 0 % 0 % 0 m²/s² 0 0 1.07 61
02:00 0 J/kg 0.6 K 0 % 0 % 0 % 0 m²/s² 0 0 0.69 61
03:00 1 J/kg 1.0 K 0 % 0 % 0 % 0 m²/s² 0 0 1.12 63
04:00 0 J/kg 0.7 K 0 % 0 % 0 % 0 m²/s² 0 0 1.18 61
05:00 1 J/kg 0.6 K 0 % 0 % 0 % 0 m²/s² 0 0 2.13 80
06:00 1 J/kg 0.9 K 0 % 0 % 0 % 0 m²/s² 0 0 2.07 61
07:00 2 J/kg 1.0 K 0 % 0 % 0 % 0 m²/s² 0 0 1.69 61
08:00 2 J/kg 1.0 K 0 % 0 % 0 % 0 m²/s² 0 0 1.03 63
09:00 2 J/kg 2.4 K 0 % 0 % 0 % 0 m²/s² 0 0 2.52 63
10:00 2 J/kg 1.8 K 0 % 0 % 0 % 0 m²/s² 0 0 1.89 61
11:00 5 J/kg 2.0 K 0 % 0 % 0 % 0 m²/s² 0 0 2.09 3
12:00 7 J/kg 2.4 K 0 % 0 % 0 % 0 m²/s² 0 0 2.4 3
13:00 5 J/kg 3.4 K 0 % 0 % 0 % 0 m²/s² 0 0 3.43 3
14:00 1 J/kg 4.0 K 0 % 0 % 0 % 0 m²/s² 0 0 4.12 3
15:00 6 J/kg 4.8 K 0 % 0 % 0 % 0 m²/s² 0 0 5.13 3
16:00 28 J/kg 4.2 K 0 % 0 % 0 % 0 m²/s² 0 0 4.86 3
17:00 7 J/kg 4.3 K 0 % 0 % 0 % 0 m²/s² 0 0 4.81 2
18:00 58 J/kg 2.0 K 0 % 0 % 0 % 0 m²/s² 0 0 2.42 3
19:00 157 J/kg -0.3 K 0 % 0 % 0 % 0 m²/s² 0 0 0.87 2
20:00 116 J/kg 0.9 K 0 % 0 % 0 % 0 m²/s² 0 0 3.3 2
21:00 42 J/kg 3.3 K 0 % 0 % 0 % 0 m²/s² 0 0 7.05 3
22:00 43 J/kg 4.0 K 0 % 0 % 0 % 0 m²/s² 0 0 9.82 2
23:00 18 J/kg 5.1 K 0 % 0 % 0 % 0 m²/s² 0 0 11.46 2
 04:42     21:32    Daglengte: 16:50 Donderdag 20 Jun
00:00 0 J/kg 6.1 K 0 % 0 % 0 % 0 m²/s² 0 0 12.64 1
Temp Baro Wind Neerslag
  EWN Forecast EWN WRFDA DWD ICON FMI HIRLAM MET Norway GFS
 04:42     21:31    Daglengte: 16:49 Vandaag
01:00 13.0° 1015.1 hPa 6.7 m/s 0.0 mm 11.0° 1015.1 hPa 5.8 m/s 3.5 mm 12.8° 1016.0 hPa 5.1 m/s -1.9 mm 14.9° 1014.4 hPa 7.2 m/s 0.0 mm 13.2° 1015.0 hPa 6.9 m/s 0.0 mm 10.8° 1016.0 hPa 5.8 m/s
04:00 12.0° 1014.9 hPa 6.2 m/s 0.0 mm 9.9° 1014.7 hPa 5.5 m/s 10.6 mm 12.0° 1015.4 hPa 4.7 m/s 0.0 mm 14.5° 1014.1 hPa 7.1 m/s 0.0 mm 11.9° 1014.8 hPa 6.5 m/s 0.0 mm 10.0° 1015.5 hPa 5.6 m/s
07:00 13.1° 1015.5 hPa 6.8 m/s 0.0 mm 11.8° 1015.0 hPa 6.4 m/s 10.6 mm 12.6° 1015.8 hPa 5.1 m/s 0.0 mm 14.7° 1014.8 hPa 7.0 m/s 0.0 mm 13.5° 1015.5 hPa 7.2 m/s 0.0 mm 11.5° 1015.7 hPa 6.7 m/s
10:00 15.5° 1015.6 hPa 6.8 m/s 0.0 mm 14.9° 1015.5 hPa 6.7 m/s 10.6 mm 14.1° 1016.8 hPa 4.8 m/s 0.0 mm 15.8° 1014.9 hPa 6.6 m/s 0.0 mm 16.5° 1015.4 hPa 7.5 m/s 0.0 mm 15.5° 1016.3 hPa 7.3 m/s
13:00 17.9° 1015.3 hPa 6.5 m/s 0.0 mm 16.6° 1014.9 hPa 6.0 m/s 10.6 mm 18.1° 1015.6 hPa 6.2 m/s 0.0 mm 16.7° 1015.2 hPa 6.4 m/s 0.0 mm 18.4° 1015.2 hPa 7.4 m/s 0.0 mm 17.6° 1015.8 hPa 7.4 m/s
16:00 19.0° 1014.7 hPa 6.1 m/s 0.0 mm 19.5° 1013.8 hPa 6.2 m/s 10.6 mm 17.8° 1015.5 hPa 5.4 m/s 0.0 mm 18.7° 1014.7 hPa 6.2 m/s 0.0 mm 19.2° 1014.6 hPa 6.7 m/s 0.0 mm 17.9° 1015.1 hPa 6.6 m/s
19:00 18.1° 1014.5 hPa 4.7 m/s 0.0 mm 17.7° 1013.6 hPa 4.5 m/s 11.2 mm 17.1° 1015.1 hPa 3.8 m/s 0.0 mm 18.0° 1014.5 hPa 5.0 m/s 0.0 mm 18.3° 1014.2 hPa 4.8 m/s 0.0 mm 16.7° 1014.7 hPa 5.0 m/s
22:00 15.2° 1015.0 hPa 3.7 m/s 0.0 mm 14.6° 1014.2 hPa 4.1 m/s 11.8 mm 15.0° 1015.6 hPa 2.2 m/s 0.0 mm 16.2° 1015.0 hPa 2.7 m/s 0.0 mm 15.1° 1014.9 hPa 3.9 m/s 0.0 mm 13.2° 1015.7 hPa 3.6 m/s
 04:42     21:31    Daglengte: 16:49 Morgen
01:00 13.7° 1015.3 hPa 3.3 m/s 0.0 mm 13.0° 1014.6 hPa 3.5 m/s 11.8 mm 13.7° 1015.5 hPa 2.4 m/s 0.0 mm 15.3° 1015.0 hPa 3.6 m/s 0.0 mm 12.7° 1015.3 hPa 3.2 m/s 0.0 mm 11.8° 1015.9 hPa 3.7 m/s
04:00 12.6° 1014.8 hPa 2.5 m/s 0.0 mm 11.8° 1013.8 hPa 2.4 m/s 11.8 mm 13.0° 1015.0 hPa 2.0 m/s 0.0 mm 14.4° 1015.0 hPa 3.0 m/s 0.0 mm 11.5° 1014.9 hPa 2.3 m/s 0.0 mm 10.8° 1015.3 hPa 2.5 m/s
07:00 13.4° 1014.8 hPa 2.5 m/s 0.0 mm 12.9° 1014.1 hPa 1.6 m/s 11.8 mm 13.6° 1014.8 hPa 2.2 m/s 0.0 mm 14.5° 1015.0 hPa 2.9 m/s 0.0 mm 13.4° 1014.9 hPa 3.1 m/s 0.0 mm 12.2° 1015.3 hPa 2.5 m/s
10:00 16.2° 1014.7 hPa 2.7 m/s 0.0 mm 15.8° 1014.0 hPa 2.9 m/s 11.8 mm 16.8° 1014.7 hPa 2.5 m/s 0.0 mm 17.3° 1014.9 hPa 2.5 m/s 0.0 mm 16.3° 1014.5 hPa 3.3 m/s 0.0 mm 16.2° 1015.0 hPa 3.0 m/s
13:00 17.9° 1013.7 hPa 3.1 m/s 0.0 mm 17.3° 1012.5 hPa 3.3 m/s 12.2 mm 19.2° 1013.3 hPa 2.2 m/s 0.0 mm 18.9° 1014.5 hPa 3.1 m/s 0.0 mm 17.7° 1013.7 hPa 3.7 m/s 0.0 mm 18.1° 1013.8 hPa 3.1 m/s
16:00 19.1° 1012.6 hPa 2.4 m/s 0.0 mm 15.7° 1011.4 hPa 1.7 m/s 19.3 mm 20.6° 1012.1 hPa 2.6 m/s 0.0 mm 20.1° 1013.6 hPa 2.3 m/s 0.0 mm 17.0° 1012.7 hPa 2.6 m/s 0.0 mm 18.9° 1012.4 hPa 2.2 m/s
19:00 18.4° 1011.6 hPa 1.3 m/s 2.0 mm 15.7° 1010.5 hPa 0.6 m/s 26.7 mm 19.1° 1011.6 hPa 1.3 m/s 0.0 mm 20.4° 1012.5 hPa 1.5 m/s 0.0 mm 16.3° 1011.7 hPa 1.3 m/s 0.0 mm 14.3° 1011.4 hPa 0.6 m/s
22:00 14.7° 1011.2 hPa 1.1 m/s 1.5 mm 13.4° 1009.0 hPa 2.6 m/s 28.0 mm 16.0° 1010.8 hPa 1.8 m/s 1.0 mm 14.5° 1011.4 hPa 0.7 m/s 0.0 mm 13.6° 1011.5 hPa 0.9 m/s
 04:42     21:31    Daglengte: 16:49 Woensdag 19 Jun
01:00 13.5° 1009.8 hPa 1.7 m/s 0.0 mm 13.5° 1007.2 hPa 2.8 m/s 28.1 mm 14.9° 1008.7 hPa 2.2 m/s 0.4 mm 12.5° 1010.2 hPa 1.4 m/s 0.0 mm 12.9° 1009.8 hPa 2.4 m/s
04:00 13.4° 1007.8 hPa 1.9 m/s 0.0 mm 14.0° 1004.8 hPa 3.9 m/s 32.2 mm 13.7° 1006.8 hPa 2.8 m/s 4.6 mm 12.0° 1008.2 hPa 1.3 m/s 0.0 mm 12.7° 1007.6 hPa 3.1 m/s
07:00 13.5° 1007.2 hPa 2.4 m/s 7.9 mm 14.1° 1003.8 hPa 2.7 m/s 35.0 mm 13.5° 1005.2 hPa 2.3 m/s 1.9 mm 13.5° 1007.8 hPa 1.4 m/s 0.0 mm 13.1° 1005.9 hPa 3.2 m/s
10:00 14.7° 1005.3 hPa 2.5 m/s 19.2 mm 13.9° 1003.1 hPa 4.1 m/s 55.5 mm 13.9° 1003.6 hPa 2.0 m/s 10.7 mm 15.5° 1007.2 hPa 2.4 m/s 0.4 mm 13.1° 1005.3 hPa 2.8 m/s
13:00 15.9° 1005.6 hPa 3.2 m/s 29.8 mm 13.7° 1003.8 hPa 6.7 m/s 88.3 mm 14.7° 1003.8 hPa 2.9 m/s 0.1 mm 17.2° 1007.5 hPa 2.8 m/s 0.5 mm 14.0° 1005.0 hPa 3.4 m/s
16:00 16.6° 1006.5 hPa 4.1 m/s 12.0 mm 16.2° 1005.0 hPa 6.4 m/s 106.8 mm 14.7° 1005.5 hPa 4.1 m/s 0.1 mm 17.4° 1007.6 hPa 3.7 m/s 0.3 mm 13.4° 1005.5 hPa 4.8 m/s
19:00 16.5° 1007.1 hPa 3.5 m/s 0.0 mm 17.1° 1006.1 hPa 5.7 m/s 106.9 mm 16.0° 1006.5 hPa 3.7 m/s 0.0 mm 16.5° 1007.8 hPa 3.0 m/s 0.0 mm 12.3° 1007.0 hPa 3.5 m/s
22:00 14.0° 1008.4 hPa 2.8 m/s 0.0 mm 13.1° 1007.6 hPa 2.4 m/s 106.9 mm 13.8° 1008.0 hPa 1.7 m/s 0.0 mm 14.2° 1008.8 hPa 3.5 m/s 10.9° 1009.2 hPa 2.7 m/s
 04:42     21:32    Daglengte: 16:50 Donderdag 20 Jun
01:00 11.7° 1009.4 hPa 3.4 m/s 0.0 mm 9.7° 1007.8 hPa 3.2 m/s 106.9 mm 11.9° 1009.2 hPa 2.0 m/s 0.1 mm 12.0° 1009.9 hPa 3.9 m/s 9.3° 1009.4 hPa 3.3 m/s
04:00 10.9° 1010.6 hPa 3.9 m/s 28.4 mm 11.2° 1010.6 hPa 3.9 m/s 8.2° 1010.1 hPa 3.5 m/s 28.4 mm
07:00 10.8° 1011.0 hPa 3.9 m/s 28.4 mm 10.8° 1011.0 hPa 3.9 m/s 10.3° 1010.8 hPa 3.9 m/s 28.4 mm
10:00 13.5° 1011.5 hPa 4.6 m/s 28.4 mm 13.4° 1011.5 hPa 4.6 m/s 14.6° 1011.4 hPa 4.6 m/s 28.4 mm
13:00 16.1° 1011.9 hPa 5.3 m/s 29.0 mm 16.0° 1012.0 hPa 5.3 m/s 16.8° 1011.2 hPa 5.4 m/s 29.0 mm
16:00 15.5° 1012.3 hPa 4.6 m/s 30.3 mm 15.5° 1012.4 hPa 4.5 m/s 15.2° 1011.2 hPa 5.5 m/s 30.3 mm
19:00 15.0° 1012.7 hPa 3.8 m/s 30.6 mm 15.0° 1012.8 hPa 3.7 m/s 15.0° 1011.3 hPa 4.7 m/s 30.6 mm
22:00 11.7° 1014.0 hPa 3.0 m/s 30.8 mm 11.8° 1014.2 hPa 3.0 m/s 10.6° 1012.2 hPa 3.7 m/s 30.8 mm
 04:42     21:32    Daglengte: 16:50 Vrijdag 21 Jun
01:00 8.5° 1015.4 hPa 2.3 m/s 30.8 mm 8.5° 1015.6 hPa 2.2 m/s 8.9° 1012.8 hPa 3.9 m/s 30.8 mm
04:00 9.1° 1016.1 hPa 2.7 m/s 30.8 mm 9.2° 1016.4 hPa 2.5 m/s 7.8° 1013.3 hPa 4.5 m/s 30.8 mm
07:00 9.9° 1016.9 hPa 3.0 m/s 30.8 mm 9.9° 1017.1 hPa 2.9 m/s 9.9° 1014.1 hPa 4.5 m/s 30.8 mm
10:00 13.0° 1017.5 hPa 3.7 m/s 30.8 mm 12.9° 1017.7 hPa 3.7 m/s 14.3° 1015.3 hPa 3.8 m/s 30.8 mm
13:00 15.8° 1018.0 hPa 4.5 m/s 31.2 mm 15.8° 1018.2 hPa 4.5 m/s 15.9° 1015.3 hPa 4.4 m/s 31.2 mm
16:00 15.9° 1018.3 hPa 3.7 m/s 31.7 mm 15.8° 1018.5 hPa 3.7 m/s 17.0° 1015.7 hPa 3.7 m/s 31.7 mm
19:00 15.6° 1018.6 hPa 2.9 m/s 32.3 mm 15.7° 1018.8 hPa 2.9 m/s 15.1° 1016.2 hPa 2.3 m/s 32.3 mm
22:00 12.1° 1019.8 hPa 2.6 m/s 32.4 mm 12.2° 1020.0 hPa 2.6 m/s 10.6° 1018.0 hPa 1.8 m/s 32.4 mm
 04:43     21:32    Daglengte: 16:49 Zaterdag 22 Jun
01:00 8.7° 1020.9 hPa 2.3 m/s 32.4 mm 8.7° 1021.1 hPa 2.4 m/s 8.4° 1018.8 hPa 1.8 m/s 32.4 mm
04:00 9.7° 1021.1 hPa 2.1 m/s 32.4 mm 9.9° 1021.3 hPa 2.2 m/s 7.4° 1018.6 hPa 1.5 m/s 32.4 mm
07:00 11.0° 1021.3 hPa 2.0 m/s 32.4 mm 11.1° 1021.5 hPa 2.0 m/s 10.1° 1019.1 hPa 1.8 m/s 32.4 mm
10:00 14.2° 1021.1 hPa 2.3 m/s 32.4 mm 14.1° 1021.4 hPa 2.2 m/s 14.6° 1018.8 hPa 3.1 m/s 32.4 mm
13:00 17.2° 1021.0 hPa 2.6 m/s 32.7 mm 17.2° 1021.2 hPa 2.5 m/s 16.9° 1018.4 hPa 3.9 m/s 32.7 mm
16:00 17.0° 1020.3 hPa 3.3 m/s 33.4 mm 17.0° 1020.5 hPa 3.2 m/s 16.1° 1017.1 hPa 4.8 m/s 33.4 mm
19:00 16.7° 1019.6 hPa 4.0 m/s 33.4 mm 16.9° 1019.9 hPa 3.9 m/s 14.9° 1016.8 hPa 5.4 m/s 33.4 mm
22:00 14.5° 1019.9 hPa 3.5 m/s 33.5 mm 14.8° 1020.1 hPa 3.5 m/s 11.3° 1018.1 hPa 4.3 m/s 33.5 mm
 04:43     21:32    Daglengte: 16:49 Zondag 23 Jun
01:00 12.5° 1020.1 hPa 3.0 m/s 33.5 mm 12.6° 1020.3 hPa 3.0 m/s 11.6° 1018.1 hPa 3.5 m/s 33.5 mm
04:00 12.2° 1019.7 hPa 3.5 m/s 33.5 mm 12.4° 1019.8 hPa 3.5 m/s 10.0° 1017.6 hPa 3.0 m/s 33.5 mm
07:00 12.3° 1019.3 hPa 4.0 m/s 33.5 mm 12.3° 1019.4 hPa 4.0 m/s 11.9° 1018.3 hPa 4.1 m/s 33.5 mm
10:00 14.7° 1018.5 hPa 4.5 m/s 33.5 mm 14.6° 1018.5 hPa 4.5 m/s 15.9° 1018.5 hPa 5.4 m/s 33.5 mm
13:00 16.9° 1017.8 hPa 5.0 m/s 34.1 mm 16.9° 1017.7 hPa 4.9 m/s 17.5° 1018.6 hPa 6.6 m/s 34.1 mm
16:00 16.6° 1017.2 hPa 4.1 m/s 34.8 mm 16.5° 1017.1 hPa 3.9 m/s 17.6° 1017.9 hPa 7.0 m/s 34.8 mm
19:00 16.0° 1016.6 hPa 3.1 m/s 34.8 mm 16.1° 1016.5 hPa 2.8 m/s 15.3° 1018.3 hPa 6.3 m/s 34.8 mm
22:00 14.3° 1016.9 hPa 3.0 m/s 34.8 mm 14.6° 1016.7 hPa 2.8 m/s 11.2° 1019.5 hPa 5.0 m/s 34.8 mm
 04:43     21:32    Daglengte: 16:49 Maandag 24 Jun
01:00 12.8° 1017.1 hPa 3.1 m/s 34.8 mm 13.0° 1016.9 hPa 2.9 m/s 10.2° 1019.5 hPa 5.2 m/s 34.8 mm
07:00 13.2° 1016.7 hPa 4.6 m/s 34.8 mm 13.4° 1016.5 hPa 4.3 m/s 11.2° 1018.5 hPa 7.6 m/s 34.8 mm
13:00 16.2° 1017.2 hPa 5.3 m/s 38.6 mm 16.7° 1017.1 hPa 5.0 m/s 10.9° 1018.0 hPa 8.6 m/s 38.6 mm
19:00 15.1° 1017.8 hPa 5.6 m/s 42.7 mm 15.5° 1017.8 hPa 5.3 m/s 10.4° 1017.3 hPa 8.4 m/s 42.7 mm
 04:44     21:32    Daglengte: 16:48 Dinsdag 25 Jun
01:00 11.4° 1019.5 hPa 5.9 m/s 46.0 mm 11.6° 1019.8 hPa 5.8 m/s 9.4° 1016.5 hPa 7.3 m/s 46.0 mm
07:00 10.9° 1020.6 hPa 6.1 m/s 55.3 mm 11.0° 1021.1 hPa 5.9 m/s 9.3° 1015.0 hPa 8.5 m/s 55.3 mm
13:00 13.8° 1022.7 hPa 6.8 m/s 62.4 mm 14.2° 1023.4 hPa 6.8 m/s 9.3° 1014.6 hPa 7.3 m/s 62.4 mm
19:00 13.4° 1023.6 hPa 6.2 m/s 63.4 mm 13.7° 1024.4 hPa 6.3 m/s 9.8° 1014.4 hPa 5.5 m/s 63.4 mm
 04:44     21:32    Daglengte: 16:48 Woensdag 26 Jun
01:00 10.1° 1025.3 hPa 4.7 m/s 63.4 mm 10.3° 1026.2 hPa 4.7 m/s 8.1° 1014.9 hPa 5.2 m/s 63.4 mm
07:00 10.4° 1025.3 hPa 4.9 m/s 63.4 mm 10.5° 1026.3 hPa 4.8 m/s 9.3° 1014.9 hPa 6.3 m/s 63.4 mm
13:00 14.6° 1025.5 hPa 6.4 m/s 63.5 mm 14.8° 1026.5 hPa 6.4 m/s 12.5° 1014.7 hPa 6.5 m/s 63.5 mm
19:00 17.7° 1021.2 hPa 0.8 m/s 1.0 mm
 04:45     21:32    Daglengte: 16:47 Donderdag 27 Jun
01:00 11.4° 1020.8 hPa 0.7 m/s 0.6 mm
07:00 12.5° 1018.8 hPa 1.3 m/s 0.8 mm
13:00 18.2° 1017.5 hPa 1.9 m/s 0.9 mm
19:00 18.1° 1016.0 hPa 2.0 m/s 0.7 mm
 04:45     21:32    Daglengte: 16:47 Vrijdag 28 Jun
01:00 12.0° 1016.1 hPa 1.2 m/s 0.3 mm
07:00 12.5° 1015.0 hPa 1.9 m/s 0.8 mm
13:00 17.8° 1014.9 hPa 3.0 m/s 0.5 mm
19:00 17.7° 1014.5 hPa 2.9 m/s 0.8 mm
 04:46     21:32    Daglengte: 16:46 Zaterdag 29 Jun
01:00 11.5° 1015.6 hPa 2.1 m/s 0.3 mm
07:00 11.6° 1015.5 hPa 2.0 m/s 0.1 mm
13:00 17.5° 1015.0 hPa 2.7 m/s 0.7 mm
19:00 17.7° 1014.2 hPa 3.0 m/s 0.8 mm
 04:46     21:31    Daglengte: 16:45 Zondag 30 Jun
01:00 11.5° 1015.0 hPa 2.1 m/s 0.2 mm
07:00 12.0° 1014.8 hPa 2.3 m/s 0.1 mm
13:00 17.7° 1014.6 hPa 3.2 m/s 0.4 mm
19:00 17.5° 1014.2 hPa 2.9 m/s 0.7 mm
 04:47     21:31    Daglengte: 16:44 Maandag 01 Jul
01:00 11.2° 1015.2 hPa 1.8 m/s 0.3 mm
07:00 12.0° 1015.0 hPa 1.9 m/s 0.0 mm
13:00 18.0° 1014.8 hPa 3.1 m/s 0.5 mm
19:00 17.8° 1014.3 hPa 3.0 m/s 1.0 mm
FMI Hirlam - 7.5 km EWN WRFDA - 12 km DWD ICON - 7 km GFS - 25 km Basiskaart






























































Updatetijd (Europe/Amsterdam) Resolutie Lengte Stap
FMI Hirlam 01:15, 07:15, 13:15, 19:15 7.5 km 49h 1h
EWN WRFDA 22:15, 04:15, 10:15, 16:15 12 km 73h 1h
DWD ICON 23:45, 05:45, 11:45, 17:45 7 km 75h 1h
GFS 20:30, 02:30, 08:30, 14:30 25 km 237h 3h
30+ mm
25-30 mm
20-25 mm
15-20 mm
10-15 mm
6-10 mm
4-6 mm
2-4 mm
1-2 mm
0.5-1 mm
0.2-0.5 mm
0.1-0.2 mm
30+ mm
25-30 mm
20-25 mm
15-20 mm
10-15 mm
6-10 mm
4-6 mm
2-4 mm
1-2 mm
0.5-1 mm
0.2-0.5 mm
0.1-0.2 mm
Sneeuwval
Natte sneeuw
Hagel
Vorst
30+ mm
25-30 mm
20-25 mm
15-20 mm
10-15 mm
6-10 mm
4-6 mm
2-4 mm
1-2 mm
0.5-1 mm
0.2-0.5 mm
0.1-0.2 mm
Sneeuwval
Natte sneeuw
Hagel
Vorst
Onweer
50 mm
40 mm
30 mm
26 mm
22 mm
18 mm
14 mm
10 mm
9 mm
8 mm
7 mm
6 mm
5 mm
4.5 mm
4 mm
3.5 mm
3 mm
2.5 mm
2 mm
1.5 mm
1 mm
0.8 mm
0.6 mm
0.4 mm
0.2 mm
0.05 mm
35°
30°
25°
20°
15°
10°
-5°
-10°
-15°
-20°
-25°
-30°
-35°
33> m/s
29 m/s
25 m/s
21 m/s
17 m/s
14 m/s
11 m/s
8 m/s
5 m/s
3 m/s
0 m/s
2600 J/kg
2400 J/kg
2200 J/kg
2000 J/kg
1800 J/kg
1600 J/kg
1400 J/kg
1200 J/kg
1000 J/kg
800 J/kg
600 J/kg
400 J/kg
200 J/kg
70 dBZ
65 dBZ
60 dBZ
55 dBZ
50 dBZ
45 dBZ
40 dBZ
35 dBZ
30 dBZ
25 dBZ
20 dBZ
15 dBZ
10 dBZ
5 dBZ
-1 K
-2 K
-3 K
-4 K
-5 K
-6 K
-7 K
-8 K
-9 K
950 m²/s²
900 m²/s²
850 m²/s²
800 m²/s²
750 m²/s²
700 m²/s²
650 m²/s²
600 m²/s²
550 m²/s²
500 m²/s²
450 m²/s²
400 m²/s²
350 m²/s²
300 m²/s²
250 m²/s²
200 m²/s²
150 m²/s²
100 m²/s²
46 m/s
44 m/s
42 m/s
40 m/s
38 m/s
36 m/s
34 m/s
32 m/s
30 m/s
28 m/s
26 m/s
24 m/s
22 m/s
20 m/s
16 m/s
12 m/s
8 m/s
4 m/s
30 m/s
28 m/s
26 m/s
24 m/s
22 m/s
20 m/s
18 m/s
16 m/s
14 m/s
12 m/s
10 m/s
8 m/s
6 m/s
4 m/s
2 m/s
3.0
2.8
2.6
2.4
2.2
2.0
1.8
1.6
1.4
1.2
1.0
0.8
0.6
0.4
0.2
15
14
13
12
11
10
9
8
7
6
5
4
3
2
1
90%
80%
70%
60%
50%
40%
30%
20%
10%
42
40
38
36
34
32
30
28
26
24
22
20
18
16
14
12
90+ cm
80-90 cm
70-80 cm
60-70 cm
50-60 cm
40-50 cm
30-40 cm
20-30 cm
10-20 cm
1-10 cm
Sneeuwval
Natte sneeuw
Regen
>120 mm
115 mm
110 mm
105 mm
100 mm
95 mm
90 mm
85 mm
80 mm
75 mm
70 mm
65 mm
60 mm
55 mm
50 mm
45 mm
45 mm
40 mm
35 mm
30 mm
25 mm
20 mm
15 mm
10 mm
5 mm
0.1 mm
960 hPa
880 hPa
800 hPa
720 hPa
640 hPa
560 hPa
584 gpdm
568 gpdm
552 gpdm
536 gpdm
520 gpdm
504 gpdm
488 gpdm
Extreem zwaar Noodweer Kans op onweer
15% 15% 5% 50% 15%

Dag




Kaart






35°
30°
25°
20°
15°
10°
-5°
-10°
-15°
-20°
-25°
-30°
-35°
33> m/s
29 m/s
25 m/s
21 m/s
17 m/s
14 m/s
11 m/s
8 m/s
5 m/s
3 m/s
0 m/s
Extreem zwaar Noodweer Kans op onweer